Bloomington, IL

4:43 PM CDT on June 24, 2018 (GMT -0500)
Central Ill Regional

Weather History for KBMI - October, 2017

Change the Weather History Date:

Friday, October 13, 2017

  Actual Average Record
Temperature  
Mean Temperature 63 °F -  
Max Temperature 75 °F 63 °F 78 °F (1996)
Min Temperature 51 °F 40 °F 31 °F (2006)
Degree Days  
Heating Degree Days 2    
Growing Degree Days 13 (Base 50)    
Moisture  
Dew Point 55 °F    
Average Humidity 81    
Maximum Humidity 97    
Minimum Humidity 54    
Precipitation  
Precipitation 0.00 in - - ()
Sea Level Pressure  
Sea Level Pressure 30.17 in    
Wind  
Wind Speed 11 mph (South)    
Max Wind Speed 18 mph    
Max Gust Speed 23 mph    
Visibility 10 miles    
Events      
Averages and records for this station are not official NWS values.
T = Trace of Precipitation, MM = Missing Value Source: NWS Daily Summary

Daily Weather History Graph

Daily Weather History Graph

Search for Another Location

Airport or City:

Astronomy

Oct. 13, 2017 Rise Set
Actual Time 7:04 AM CDT 6:18 PM CDT
Civil Twilight 6:37 AM CDT 6:45 PM CDT
Nautical Twilight 6:05 AM CDT 7:17 PM CDT
Astronomical Twilight 5:34 AM CDT 7:48 PM CDT
Moon 12:26 AM CDT (10/13) 3:04 PM CDT (10/13)
Length of Visible Light 12h 08m
Length of Day
11h 13m
Last Quarter, 37% of the Moon is Illuminated
Oct 13
Last Quarter
Oct 19
New
Oct 27
First Quarter
Nov 4
Full
Nov 10
Last Quarter

Hourly Weather History & Observations

Time (CDT) Temp. Dew Point Humidity Pressure Visibility Wind Dir Wind Speed Gust Speed Precip Events Conditions
12:56 AM 55.9 °F 53.1 °F 90% 30.20 in 10.0 mi South 10.4 mph - N/A   Overcast
1:38 AM 53.6 °F 51.8 °F 94% 30.14 in 10.0 mi South 8.1 mph - N/A   Scattered Clouds
1:56 AM 53.1 °F 51.1 °F 93% 30.22 in 10.0 mi SSW 6.9 mph - N/A   Scattered Clouds
2:06 AM 53.6 °F 51.8 °F 94% 30.15 in 10.0 mi SSW 6.9 mph - N/A   Mostly Cloudy
2:53 AM 53.6 °F 51.8 °F 94% 30.15 in 10.0 mi SSW 8.1 mph - N/A   Overcast
2:56 AM 54.0 °F 52.0 °F 93% 30.22 in 10.0 mi SSW 9.2 mph - N/A   Overcast
3:25 AM 53.6 °F 51.8 °F 94% 30.15 in 10.0 mi SSW 8.1 mph - N/A   Scattered Clouds
3:56 AM 51.1 °F 50.0 °F 96% 30.23 in 10.0 mi South 8.1 mph - N/A   Clear
4:56 AM 52.0 °F 51.1 °F 97% 30.23 in 10.0 mi South 10.4 mph - N/A   Scattered Clouds
5:56 AM 54.0 °F 52.0 °F 93% 30.24 in 10.0 mi South 11.5 mph - N/A   Overcast
6:56 AM 54.0 °F 52.0 °F 93% 30.24 in 10.0 mi South 11.5 mph - N/A   Overcast
7:56 AM 55.0 °F 53.1 °F 93% 30.24 in 10.0 mi South 13.8 mph - N/A   Overcast
8:36 AM 55.4 °F 53.6 °F 94% 30.17 in 10.0 mi South 16.1 mph - N/A   Mostly Cloudy
8:56 AM 55.9 °F 53.1 °F 90% 30.25 in 10.0 mi South 16.1 mph - N/A   Mostly Cloudy
9:12 AM 57.2 °F 53.6 °F 88% 30.17 in 10.0 mi South 16.1 mph - N/A   Mostly Cloudy
9:38 AM 59.0 °F 55.4 °F 88% 30.17 in 10.0 mi South 18.4 mph - N/A   Scattered Clouds
9:56 AM 61.0 °F 55.0 °F 81% 30.25 in 10.0 mi South 16.1 mph - N/A   Partly Cloudy
10:56 AM 64.9 °F 57.0 °F 75% 30.23 in 10.0 mi South 12.7 mph - N/A   Clear
11:56 AM 68.0 °F 57.0 °F 68% 30.19 in 10.0 mi South 15.0 mph - N/A   Partly Cloudy
12:56 PM 70.0 °F 57.9 °F 65% 30.17 in 10.0 mi South 15.0 mph - N/A   Clear
1:56 PM 73.0 °F 59.0 °F 61% 30.14 in 10.0 mi South 15.0 mph - N/A   Clear
2:56 PM 75.0 °F 59.0 °F 57% 30.12 in 10.0 mi South 11.5 mph - N/A   Clear
3:56 PM 75.9 °F 57.9 °F 54% 30.11 in 10.0 mi South 17.3 mph 23.0 mph N/A   Partly Cloudy
4:56 PM 75.0 °F 57.9 °F 55% 30.11 in 10.0 mi South 15.0 mph - N/A   Clear
5:56 PM 72.0 °F 57.9 °F 61% 30.11 in 10.0 mi South 11.5 mph - N/A   Clear
6:56 PM 66.9 °F 57.9 °F 73% 30.13 in 10.0 mi SSE 9.2 mph - N/A   Clear
7:56 PM 66.9 °F 57.0 °F 70% 30.14 in 10.0 mi SSE 11.5 mph - N/A   Clear
8:56 PM 66.0 °F 57.0 °F 73% 30.14 in 10.0 mi SSE 12.7 mph - N/A   Clear
9:56 PM 64.9 °F 57.0 °F 75% 30.14 in 10.0 mi SSE 13.8 mph - N/A   Clear
10:01 PM 64.4 °F 55.4 °F 73% 30.08 in 10.0 mi SSE 13.8 mph - N/A   Clear
10:56 PM 64.0 °F 55.9 °F 75% 30.14 in 10.0 mi SSE 11.5 mph - N/A   Clear